Location: Bohy
(49.9380°N, 13.5753°E)
Time: 19:19:24
(UTC+00:00)

Cosmos 1697 Rocket - Pass Details

Date: 19 May 2025
Orbit: 830 x 844 km, 71.0° (Epoch: 20 June)

Event Time Altitude Azimuth Distance (km) Brightness Sun altitude
Rises 19:33:54 0° 332° (NNW) 3,406 7.4 -6.3°
Reaches altitude 10° 19:36:24 10° 337° (NNW) 2,470 6.4 -6.6°
Maximum altitude 19:41:59 56° 55° (NE) 1,003 3.1 -7.3°
Drops below altitude 10° 19:47:32 10° 134° (SE) 2,460 4.4 -7.9°
Enters shadow 19:47:36 10° 134° (SE) 2,487 4.4 -8.0°
